Search your local weather  

 

Hazardous Weather Conditions

No active alerts for PHILADELPHIA, PENNSYLVANIA

Current Conditions: PHILADELPHIA, PENNSYLVANIA

Fair


57.0 F

Last Updated on Sep 22 2020, 9:54 pm EDT
Humidity: 60%
Wind Speed: W 5.8 mph
Barometer 29.95 in
Dewpoint: 43.0 F
Visibility: 10.00 mi
Precip: --
Heat Index: NA
Wind Chill: 56 F
Current conditions at:

Philadelphia, Northeast Philadelphia Airport, PA (KPNE)

Lat: 40.07889 Lon: -75.01361

Local Radar Image active severe weather and emergency alerts image image weather storm and storm spotter reports image weather observation monitoring service image
Local
Radar
Active
Alerts
Storm Reports Weather
Monitoring

5 Day Forecast for PHILADELPHIA, PENNSYLVANIA (19102)

Tuesday

Sunny

High 71 °F
Tuesday
Night
Clear

Low 54 °F
Wednesday

Sunny

High 78 °F
Wednesday
Night
Mostly Clear

Low 55 °F
Thursday

Partly Sunny

High 79 °F
Thursday
Night
Partly Cloudy

Low 59 °F
Friday

Partly Sunny

High 80 °F
Friday
Night
Mostly Clear

Low 58 °F
Saturday

Mostly Sunny

High 78 °F

Sign-up For Email & Text Message Weather Alert Notification Services



Advertise Here

Observation History for PHILADELPHIA, PENNSYLVANIA


Time Wind
(mph)
Vis
(mi)
Weather Precip (in) Temperature (F) Relative
Humidity
Wind
Chill
(F)
Heat
Index
(F)
Pressure
Air Dwpt altimeter
(in)
sea level
(mb)
9:54 pm EDT W 5.8 10.00 Fair -- 57.0 43.0 60% 56 NA 29.95 1014.2
8:54 pm EDT W 5.8 10.00 Fair -- 63.0 41.0 45% 63 NA 29.95 1014.2
7:54 pm EDT W 5.8 10.00 Fair -- 63.0 41.0 45% 63 NA 29.94 1013.9
6:54 pm EDT W 8.1 10.00 Fair -- 68.0 39.0 35% NA NA 29.94 1013.9
5:54 pm EDT NW 8.1 10.00 Fair -- 73.0 35.1 25% NA NA 29.95 1014.2
4:54 pm EDT NW 10.4 G 21.9 10.00 Fair -- 74.0 33.1 22% NA NA 29.96 1014.6
3:54 pm EDT W 15.0 G 19.6 10.00 Fair -- 74.0 36.0 25% NA NA 29.99 1015.6
2:54 pm EDT N 11.5 10.00 Fair -- 73.0 36.0 26% NA NA 30.04 1017.0
1:54 pm EDT N 11.5 10.00 Fair -- 72.0 36.0 27% NA NA 30.07 1018.3
12:54 pm EDT NW 15.0 10.00 Fair -- 71.0 36.0 28% NA NA 30.10 1019.1
11:54 am EDT NW 15.0 G 19.6 10.00 Fair -- 69.0 32.0 25% NA NA 30.15 1020.9
10:54 am EDT N 9.2 10.00 Fair -- 65.0 37.9 37% NA NA 30.19 1022.1
9:54 am EDT NW 5.8 10.00 Fair -- 59.0 39.9 49% 58 NA 30.23 1023.5
8:54 am EDT N 6.9 10.00 Fair -- 54.0 39.9 59% 52 NA 30.24 1024.0
7:54 am EDT NW 9.2 10.00 Fair -- 49.0 39.0 69% 45 NA 30.25 1024.2
6:54 am EDT NW 5.8 10.00 Fair -- 46.0 37.9 73% 43 NA 30.27 1024.8
5:54 am EDT N 0.0 10.00 Fair -- 45.0 39.0 80% NA NA 30.27 1025.1
4:54 am EDT N 0.0 10.00 Fair -- 46.0 37.9 73% NA NA 30.29 1025.8
3:54 am EDT NW 3.5 10.00 Fair -- 46.0 37.9 73% NA NA 30.30 1026.1
2:54 am EDT N 0.0 10.00 Fair -- 48.0 37.9 68% NA NA 30.31 1026.5
1:54 am EDT N 0.0 10.00 Fair -- 47.0 37.9 71% NA NA 30.34 1027.4
12:54 am EDT N 0.0 10.00 Fair -- 48.0 39.0 71% NA NA 30.35 1027.7
11:54 pm EDT NW 3.5 10.00 Fair -- 48.0 39.0 71% NA NA 30.38 1028.5
10:54 pm EDT N 0.0 10.00 Fair -- 50.0 41.0 71% NA NA 30.40 1029.2

Regional Weather Observation

Pottstown, Pottstown Limerick Airport, PA (KPTW)

Fair
54.0 F

Doylestown, Doylestown Airport, PA (KDYL)

Fair
57.0 F

Quakertown Airport, PA (KUKT)

Fair
52.0 F

Allentown Queen City Municipal Airport, PA (KXLL)

Fair
54.0 F

Reading, Reading Regional Airport, PA (KRDG)

Fair
59.0 F

Philadelphia, Philadelphia International Airport, PA (KPHL)

Fair
63.0 F

Advertise Here


Advertise Here